Total_Precipitation_Accumulation
2.91 3.11 3.07 2.89 2.92 3.02 3.24 3.52 3.60 3.35 3.19 2.99 2.62 2.49 2.54 2.54 2.65 2.53 2.60 2.48 2.03 1.78 1.72 1.71 1.68 1.71 1.81 1.95 2.18 2.47 2.66 2.76 2.91 3.17 3.54 3.92 4.24 4.57
3.16 3.23 3.09 2.84 3.00 3.01 3.12 3.45 3.76 3.84 3.50 2.98 2.71 2.59 2.66 2.46 2.49 2.25 2.29 2.17 1.84 1.67 1.57 1.54 1.47 1.43 1.44 1.51 1.63 1.89 2.08 2.25 2.42 2.55 2.73 2.98 3.28 3.54
3.07 2.99 2.91 2.96 3.15 3.06 3.17 3.32 3.59 3.85 3.54 3.10 2.92 2.87 2.93 2.82 2.65 2.29 2.01 1.89 1.74 1.80 1.64 1.49 1.40 1.36 1.40 1.48 1.54 1.64 1.81 2.00 2.17 2.31 2.47 2.66 2.80 2.96
3.01 2.99 2.85 2.98 3.08 3.06 3.12 3.10 3.21 3.56 3.45 3.17 3.08 3.12 3.03 2.87 2.78 2.59 2.19 1.97 1.98 2.04 1.80 1.63 1.51 1.45 1.40 1.40 1.49 1.57 1.68 1.82 1.96 2.05 2.10 2.16 2.31 2.57
2.98 2.89 2.75 2.85 2.76 2.83 2.87 2.89 2.89 3.03 3.24 3.12 2.98 3.07 2.99 2.86 2.82 2.68 2.57 2.64 2.38 2.16 1.96 1.77 1.63 1.54 1.50 1.42 1.45 1.53 1.64 1.70 1.71 1.83 1.96 2.05 2.11 2.19
2.62 2.55 2.57 2.70 2.79 2.78 2.67 2.66 2.75 2.91 3.02 3.05 3.00 3.08 3.10 3.13 3.06 2.91 2.90 2.84 2.64 2.14 2.02 1.78 1.64 1.51 1.43 1.36 1.38 1.54 1.67 1.73 1.75 1.72 1.78 1.88 1.98 2.08
2.35 2.18 2.20 2.55 2.70 2.68 2.46 2.58 2.67 2.74 2.83 2.96 2.99 3.07 3.16 3.40 3.23 2.97 2.85 2.92 2.75 2.47 2.26 1.97 1.80 1.67 1.59 1.52 1.46 1.46 1.50 1.61 1.71 1.83 1.97 2.07 2.13 2.18
2.12 2.05 2.04 2.11 2.14 2.19 2.21 2.25 2.33 2.40 2.61 2.93 3.00 2.98 2.94 3.05 3.20 3.16 3.08 2.98 2.86 2.72 2.74 2.59 2.22 2.13 2.00 1.81 1.69 1.44 1.28 1.34 1.49 1.64 1.91 2.18 2.42 2.49
2.10 2.17 1.85 1.65 1.81 1.83 1.99 1.99 1.93 2.05 2.21 2.48 2.67 2.69 2.80 2.82 3.12 3.16 3.23 3.24 3.15 3.07 3.06 3.05 2.69 2.36 2.07 1.95 1.86 1.50 1.33 1.28 1.33 1.45 1.60 1.83 2.14 2.45
1.99 2.03 1.97 1.84 1.81 1.92 2.02 1.96 1.80 1.75 1.76 1.73 1.94 2.25 2.54 2.83 2.92 2.99 3.13 3.20 3.19 3.01 2.92 2.95 2.74 2.58 2.22 1.92 1.79 1.58 1.40 1.27 1.24 1.31 1.35 1.42 1.58 1.83
1.93 1.88 1.83 1.75 1.85 1.75 1.70 1.70 1.71 1.68 1.54 1.53 1.60 1.82 2.06 2.17 2.40 2.66 2.88 2.89 2.82 2.62 2.45 2.53 2.53 2.53 2.49 2.24 1.84 1.72 1.49 1.30 1.25 1.26 1.25 1.26 1.34 1.46
1.92 1.87 1.75 1.59 1.61 1.52 1.45 1.58 1.58 1.58 1.65 1.59 1.47 1.48 1.55 1.73 1.85 1.94 2.26 2.50 2.40 2.33 2.10 2.03 2.00 2.14 2.31 2.08 1.81 1.73 1.68 1.55 1.37 1.31 1.28 1.25 1.29 1.21
1.94 1.83 1.76 1.65 1.47 1.44 1.38 1.40 1.48 1.52 1.61 1.66 1.60 1.52 1.59 1.71 1.68 1.66 1.85 2.12 2.23 2.03 1.88 2.01 1.91 1.86 1.85 1.76 1.64 1.52 1.56 1.69 1.65 1.50 1.41 1.37 1.37 1.34
2.07 2.02 1.93 1.73 1.50 1.44 1.34 1.30 1.30 1.23 1.22 1.39 1.45 1.41 1.45 1.57 1.65 1.66 1.73 1.81 1.94 1.91 1.95 2.07 2.07 2.02 1.90 1.72 1.58 1.44 1.39 1.49 1.63 1.82 1.90 1.91 1.74 1.66
2.08 2.17 1.93 1.68 1.52 1.35 1.34 1.35 1.24 1.11 1.19 1.27 1.26 1.26 1.27 1.39 1.63 1.82 1.91 1.98 1.96 1.79 1.65 1.74 1.86 2.04 2.09 1.83 1.56 1.44 1.43 1.46 1.56 1.77 1.91 2.00 2.04 2.04
1.92 2.02 1.89 1.72 1.57 1.43 1.38 1.35 1.24 1.26 1.35 1.33 1.33 1.38 1.41 1.48 1.60 1.68 1.81 1.95 1.95 1.74 1.65 1.66 1.77 1.99 2.02 1.80 1.66 1.54 1.54 1.59 1.58 1.77 2.02 2.10 2.10 2.12
2.07 2.04 1.98 1.84 1.69 1.55 1.50 1.53 1.56 1.55 1.49 1.49 1.53 1.53 1.51 1.51 1.57 1.65 1.74 1.84 1.82 1.65 1.55 1.66 1.77 1.97 1.99 1.92 1.81 1.59 1.57 1.53 1.51 1.70 2.00 2.09 2.08 2.09
2.06 1.96 2.03 1.96 1.82 1.71 1.64 1.64 1.64 1.60 1.56 1.59 1.57 1.56 1.54 1.52 1.57 1.62 1.65 1.67 1.69 1.67 1.61 1.61 1.81 2.04 2.11 1.87 1.54 1.45 1.43 1.37 1.44 1.68 1.86 1.91 1.77 1.73
1.71 1.73 1.84 1.86 1.76 1.70 1.65 1.62 1.57 1.62 1.68 1.62 1.57 1.60 1.61 1.60 1.63 1.67 1.67 1.71 1.69 1.67 1.67 1.73 1.83 1.91 1.93 1.70 1.42 1.24 1.35 1.42 1.52 1.61 1.70 1.71 1.59 1.56
1.49 1.55 1.61 1.67 1.68 1.70 1.71 1.71 1.65 1.66 1.69 1.68 1.65 1.66 1.67 1.64 1.66 1.66 1.61 1.62 1.72 1.76 1.77 1.69 1.69 1.70 1.70 1.73 1.65 1.43 1.30 1.51 1.67 1.63 1.57 1.62 1.59 1.57
1.34 1.38 1.43 1.45 1.50 1.55 1.56 1.63 1.65 1.65 1.66 1.69 1.65 1.65 1.69 1.68 1.68 1.66 1.65 1.68 1.70 1.74 1.73 1.60 1.60 1.81 1.94 2.02 1.86 1.60 1.55 1.59 1.72 1.75 1.75 1.81 1.75 1.67
1.33 1.35 1.33 1.34 1.39 1.47 1.55 1.63 1.67 1.70 1.74 1.72 1.69 1.69 1.72 1.73 1.72 1.73 1.74 1.76 1.77 1.76 1.77 1.80 1.91 2.05 2.13 2.10 1.90 1.82 1.90 1.89 1.89 1.86 1.75 1.72 1.65 1.51
1.31 1.30 1.28 1.28 1.32 1.41 1.49 1.56 1.63 1.69 1.69 1.71 1.77 1.75 1.69 1.68 1.68 1.72 1.73 1.77 1.84 1.92 2.01 2.02 2.00 1.99 1.98 2.03 2.01 1.93 1.88 1.95 2.01 1.95 1.76 1.64 1.49 1.33